Change the Weather History Date:

Saturday, March 2, 2013

  Actual Average Record
Temperature  
Mean Temperature 50 °F 46 °F  
Max Temperature 71 °F 62 °F 76 °F (1967)
Min Temperature 28 °F 29 °F 9 °F (1971)
Degree Days  
Heating Degree Days 15 19  
Month to date heating degree days 31 39  
Since 1 July heating degree days 3238 3246  
Cooling Degree Days 0 0  
Month to date cooling degree days 0 0  
Year to date cooling degree days 0 0  
Moisture  
Dew Point 17 °F    
Average Humidity 33    
Maximum Humidity 53    
Minimum Humidity 13    
Precipitation  
Precipitation 0.00 in 0.03 in 0.51 in (1981)
Month to date precipitation 0.00 0.05  
Year to date precipitation T 1.95  
Snow  
Snow 0.00 in 0.00 in 2.90 in (1981)
Month to date snowfall 0.0 0.0  
Since 1 July snowfall 2.8 5.9  
Snow Depth 0.00 in    
Sea Level Pressure  
Sea Level Pressure 30.17 in    
Wind  
Wind Speed 8 mph (WSW)    
Max Wind Speed 18 mph    
Max Gust Speed 24 mph    
Visibility 10 miles    
Events      
T = Trace of Precipitation, MM = Missing Value Source: NWS Daily Summary

Daily Weather History Graph

Daily Weather History Graph

Search for Another Location

Airport or City:

Trip Planner

Search our weather history database for the weather conditions in past years. The results will help you decide how hot, cold, wet, or windy it might be!

Date:

Astronomy

Mar. 02, 2013 Rise Set
Actual Time 6:22 AM PST 5:48 PM PST
Civil Twilight 5:56 AM PST 6:14 PM PST
Nautical Twilight 5:26 AM PST 6:45 PM PST
Astronomical Twilight 4:56 AM PST 7:15 PM PST
Moon 11:25 PM PST (3/2) 9:01 AM PST (3/2)
Length of Visible Light 12h 18m
Length of Day
11h 25m
Waning Gibbous, 73% of the Moon is Illuminated
Mar 2
Waning Gibbous
Mar 4
Last Quarter
Mar 11
New
Mar 19
First Quarter
Mar 27
Full

Hourly Weather History & Observations

Time (PST) Temp. Windchill Dew Point Humidity Pressure Visibility Wind Dir Wind Speed Gust Speed Precip Events Conditions
12:56 AM 33.1 °F 26.1 °F 16.0 °F 50% 30.34 in 10.0 mi NNW 8.1 mph - N/A   Clear
1:56 AM 30.9 °F 23.5 °F 15.1 °F 52% 30.34 in 10.0 mi NNW 8.1 mph - N/A   Clear
2:56 AM 35.1 °F 27.9 °F 17.1 °F 48% 30.31 in 10.0 mi NW 9.2 mph - N/A   Clear
3:56 AM 33.1 °F 27.7 °F 17.1 °F 52% 30.31 in 10.0 mi WNW 5.8 mph - N/A   Clear
4:56 AM 33.1 °F 26.9 °F 17.1 °F 52% 30.31 in 10.0 mi NW 6.9 mph - N/A   Clear
5:56 AM 30.9 °F 24.3 °F 16.0 °F 54% 30.31 in 10.0 mi NW 6.9 mph - N/A   Clear
6:56 AM 33.1 °F 27.7 °F 17.1 °F 52% 30.32 in 10.0 mi NNW 5.8 mph - N/A   Clear
7:56 AM 39.0 °F - 18.0 °F 43% 30.32 in 10.0 mi Calm Calm - N/A   Clear
8:56 AM 48.9 °F - 19.0 °F 31% 30.29 in 10.0 mi Calm Calm - N/A   Clear
9:56 AM 57.9 °F - 19.0 °F 22% 30.27 in 10.0 mi Calm Calm - N/A   Clear
10:56 AM 61.0 °F - 18.0 °F 19% 30.24 in 10.0 mi Variable 3.5 mph - N/A   Clear
11:56 AM 66.0 °F - 17.1 °F 15% 30.20 in 10.0 mi South 11.5 mph 20.7 mph N/A   Clear
12:56 PM 66.0 °F - 18.0 °F 16% 30.15 in 10.0 mi SSE 13.8 mph 23.0 mph N/A   Clear
1:56 PM 68.0 °F - 16.0 °F 14% 30.11 in 10.0 mi South 18.4 mph - N/A   Clear
2:56 PM 71.1 °F - 17.1 °F 13% 30.08 in 10.0 mi SE 12.7 mph 19.6 mph N/A   Clear
3:56 PM 70.0 °F - 17.1 °F 13% 30.05 in 10.0 mi South 10.4 mph - N/A   Clear
4:56 PM 66.9 °F - 17.1 °F 15% 30.03 in 10.0 mi SSE 12.7 mph - N/A   Clear
5:56 PM 60.1 °F - 17.1 °F 19% 30.04 in 10.0 mi SE 5.8 mph - N/A   Clear
6:56 PM 60.1 °F - 17.1 °F 19% 30.03 in 10.0 mi South 11.5 mph - N/A   Clear
7:56 PM 60.1 °F - 17.1 °F 19% 30.02 in 10.0 mi South 11.5 mph 18.4 mph N/A   Clear
8:56 PM 59.0 °F - 17.1 °F 20% 30.01 in 10.0 mi SW 9.2 mph - N/A   Clear
9:56 PM 48.0 °F - 17.1 °F 29% 30.02 in 10.0 mi NNW 5.8 mph - N/A   Clear
10:56 PM 46.9 °F - 17.1 °F 30% 30.01 in 10.0 mi WNW 8.1 mph - N/A   Partly Cloudy
11:56 PM 53.1 °F - 18.0 °F 25% 29.95 in 10.0 mi NW 8.1 mph - N/A   Mostly Cloudy